Simultaneous Nadir Overpasses (SNOs) Predictions

Prediction of SNOs between AQUA and METOP-C Satellite Orbit:

Table of predicted SNOs for the next 14.0 days since TLE Epoch: 8/5/2023
Index Date (AQUA) Time (AQUA) Lat,Lon (AQUA) SZA (AQUA ) Date (METOP-C) Time (METOP-C) Lat,Lon (METOP-C) SZA (METOP-C ) Distance(km) Time Diff (sec)
1 08/05/2023 09:05:34 -74.62,-140.22 122.38 08/05/2023 09:04:45 -74.61,-140.28 122.39 2.43 49
2 08/05/2023 09:55:00 74.67, 27.30 57.68 08/05/2023 09:55:23 74.70, 27.29 57.71 2.92 23
3 08/08/2023 02:08:21 74.10, 145.33 57.81 08/08/2023 02:07:15 74.05, 142.69 57.85 80.78 66
4 08/08/2023 02:57:56 -74.68, -48.43 121.57 08/08/2023 02:57:44 -74.67, -48.39 121.58 1.89 12
5 08/08/2023 03:47:22 74.74, 119.08 58.51 08/08/2023 03:48:23 74.71, 119.07 58.48 2.93 61
6 08/10/2023 20:00:52 74.64,-124.02 59.17 08/10/2023 20:00:04 74.64,-124.06 59.18 1.24 48
7 08/10/2023 20:50:17 -74.70, 43.48 120.76 08/10/2023 20:50:44 -74.71, 43.48 120.75 1.77 27
8 08/13/2023 13:03:42 -74.39, 160.88 120.29 08/13/2023 13:02:31 -74.33, 159.56 120.30 40.37 71
9 08/13/2023 13:53:12 74.66, -32.14 60.01 08/13/2023 13:53:04 74.68, -32.20 60.03 2.52 8
10 08/13/2023 14:42:37 -74.72, 135.36 119.92 08/13/2023 14:43:44 -74.75, 135.32 119.89 3.35 67
11 08/16/2023 06:56:06 -74.68,-107.87 119.14 08/16/2023 06:55:25 -74.65,-107.86 119.16 2.95 41
12 08/16/2023 07:45:31 74.70, 59.72 60.90 08/16/2023 07:46:04 74.71, 59.62 60.91 3.07 33
13 08/18/2023 23:58:57 74.62, 176.59 61.66 08/18/2023 23:57:44 74.61, 176.42 61.67 5.19 73
14 08/19/2023 00:48:23 -74.72, -16.02 118.22 08/19/2023 00:48:23 -74.72, -15.94 118.22 2.24 0



Historial Predications of SNOs between AQUA and METOP-C
